Location: Bambrugge
(50.9212°N, 3.9299°E)
Time: 21:47:17
(UTC+00:00)

SL-16 R/B - Pass Details

Date: 17 August 2024
Orbit: 842 x 845 km, 71.0° (Epoch: 10 September)

Event Time Altitude Azimuth Distance (km) Brightness Sun altitude
Exits shadow 23:01:18 48° 231° (SW) 1,101 2.5 -25.3°
Maximum altitude 23:02:55 73° 301° (WNW) 884 2.3 -25.3°
Drops below altitude 10° 23:08:36 10° 27° (NNE) 2,477 5.3 -25.5°
Sets 23:11:05 0° 30° (NNE) 3,416 6.1 -25.6°
